ETD172H KLAX-OMAA

Flight info

Callsign ETD172H
Flight time N/A
Altitude 30000
Route ORCKA5 BEALE/N0487F320 DCT KAPPN DCT UDGOG/N0474F340 DCT PIGTO/N0472F350 DCT 74N00/M081F350 DCT 85N032W 74N035E/K0883F370 70N040E 59N047E/K0863F390 50N050E/N0473F390 34N053E DCT ITOMI DCT ELOVU
Aircraft A346/H-SDE2E3FGHIJ3J4J5M1RWXY/LB1D1

Departure

Time 2026-05-06 11:52
Airport Los Angeles International Airport (KLAX)

Arrival

Time N/A
Airport Zayed International Airport (OMAA)
Time Latitude Longitude Altitude Speed Heading
2026-05-06 11:09 33.94176 -118.41110 101 ft 0 kts 83°
2026-05-06 11:33 33.94174 -118.41130 101 ft 4 kts 83°
2026-05-06 11:33 33.94171 -118.41158 101 ft 2 kts 83°
2026-05-06 11:33 33.94171 -118.41184 101 ft 4 kts 108°
2026-05-06 11:33 33.94181 -118.41202 101 ft 4 kts 145°
2026-05-06 11:34 33.94200 -118.41210 100 ft 3 kts 173°
2026-05-06 11:34 33.94227 -118.41214 101 ft 4 kts 173°
2026-05-06 11:34 33.94236 -118.41216 101 ft 0 kts 173°
2026-05-06 11:38 33.94232 -118.41215 101 ft 1 kts 172°
2026-05-06 11:38 33.94217 -118.41213 101 ft 3 kts 172°
2026-05-06 11:38 33.94190 -118.41208 102 ft 5 kts 171°
2026-05-06 11:38 33.94150 -118.41200 101 ft 7 kts 171°
2026-05-06 11:39 33.94100 -118.41192 102 ft 8 kts 172°
2026-05-06 11:39 33.94045 -118.41186 102 ft 8 kts 175°
2026-05-06 11:39 33.93984 -118.41180 103 ft 9 kts 174°
2026-05-06 11:39 33.93920 -118.41169 102 ft 10 kts 172°
2026-05-06 11:40 33.93851 -118.41158 102 ft 10 kts 172°
2026-05-06 11:40 33.93799 -118.41147 101 ft 5 kts 152°
2026-05-06 11:40 33.93775 -118.41113 102 ft 5 kts 109°
2026-05-06 11:40 33.93772 -118.41063 102 ft 6 kts 89°
2026-05-06 11:41 33.93776 -118.41005 101 ft 7 kts 82°
2026-05-06 11:41 33.93782 -118.40944 103 ft 7 kts 82°
2026-05-06 11:41 33.93789 -118.40882 102 ft 7 kts 82°
2026-05-06 11:41 33.93796 -118.40821 103 ft 7 kts 82°
2026-05-06 11:42 33.93802 -118.40761 103 ft 7 kts 82°
2026-05-06 11:42 33.93809 -118.40698 102 ft 8 kts 82°
2026-05-06 11:42 33.93816 -118.40633 102 ft 8 kts 83°
2026-05-06 11:42 33.93822 -118.40567 105 ft 8 kts 84°
2026-05-06 11:43 33.93827 -118.40502 104 ft 8 kts 84°
2026-05-06 11:43 33.93833 -118.40439 103 ft 8 kts 82°
2026-05-06 11:43 33.93842 -118.40363 104 ft 9 kts 82°
2026-05-06 11:44 33.93859 -118.40203 104 ft 10 kts 82°
2026-05-06 11:44 33.93868 -118.40120 107 ft 10 kts 82°
2026-05-06 11:44 33.93877 -118.40035 104 ft 10 kts 84°
2026-05-06 11:44 33.93885 -118.39946 106 ft 11 kts 84°
2026-05-06 11:45 33.93894 -118.39850 105 ft 12 kts 83°
2026-05-06 11:45 33.93905 -118.39745 103 ft 13 kts 82°
2026-05-06 11:45 33.93918 -118.39636 103 ft 13 kts 82°
2026-05-06 11:45 33.93931 -118.39522 103 ft 14 kts 82°
2026-05-06 11:46 33.93941 -118.39404 105 ft 14 kts 84°
2026-05-06 11:46 33.93952 -118.39282 104 ft 15 kts 83°
2026-05-06 11:46 33.93964 -118.39159 104 ft 15 kts 83°
2026-05-06 11:46 33.93977 -118.39040 102 ft 14 kts 82°
2026-05-06 11:47 33.93990 -118.38921 102 ft 14 kts 83°
2026-05-06 11:47 33.94002 -118.38800 103 ft 14 kts 83°
2026-05-06 11:47 33.94013 -118.38682 106 ft 14 kts 83°
2026-05-06 11:47 33.94025 -118.38566 104 ft 14 kts 83°
2026-05-06 11:48 33.94038 -118.38451 106 ft 14 kts 83°
2026-05-06 11:48 33.94050 -118.38334 105 ft 14 kts 83°
2026-05-06 11:48 33.94062 -118.38215 103 ft 15 kts 83°
2026-05-06 11:48 33.94075 -118.38092 101 ft 12 kts 83°
2026-05-06 11:49 33.94072 -118.38038 101 ft 6 kts 126°
2026-05-06 11:49 33.94042 -118.38011 102 ft 5 kts 152°
2026-05-06 11:49 33.94010 -118.37999 102 ft 4 kts 188°
2026-05-06 11:49 33.93987 -118.38015 104 ft 2 kts 228°
2026-05-06 11:50 33.93982 -118.38033 103 ft 2 kts 265°
2026-05-06 11:50 33.93981 -118.38042 102 ft 0 kts 262°
2026-05-06 11:50 33.93981 -118.38043 102 ft 1 kts 262°
2026-05-06 11:50 33.93960 -118.38236 106 ft 53 kts 263°
2026-05-06 11:51 33.93891 -118.38922 103 ft 110 kts 263°
2026-05-06 11:51 33.93777 -118.40051 107 ft 159 kts 262°
2026-05-06 11:51 33.93618 -118.41543 139 ft 195 kts 265°
2026-05-06 11:51 33.93435 -118.43151 673 ft 192 kts 262°
2026-05-06 11:52 33.93230 -118.44743 1273 ft 192 kts 261°
2026-05-06 11:52 33.93025 -118.46349 1753 ft 198 kts 261°
2026-05-06 11:52 33.92915 -118.48035 2195 ft 205 kts 273°
2026-05-06 11:52 33.93131 -118.49721 2578 ft 207 kts 287°
2026-05-06 11:53 33.93729 -118.51297 2997 ft 208 kts 304°
2026-05-06 11:53 33.94799 -118.52458 3358 ft 213 kts 335°
2026-05-06 11:53 33.96264 -118.52874 3660 ft 222 kts 353°
2026-05-06 11:53 33.97844 -118.53064 3880 ft 236 kts 352°
2026-05-06 11:54 33.99522 -118.53392 4101 ft 252 kts 347°
2026-05-06 11:54 34.01267 -118.53911 4379 ft 266 kts 344°
2026-05-06 11:54 34.03087 -118.54546 4725 ft 277 kts 342°
2026-05-06 11:54 34.04944 -118.55244 5293 ft 279 kts 342°
2026-05-06 11:55 34.06797 -118.55968 5900 ft 281 kts 342°
2026-05-06 11:55 34.08636 -118.56701 6437 ft 285 kts 342°
2026-05-06 11:55 34.10554 -118.57473 6969 ft 288 kts 342°
2026-05-06 11:55 34.12444 -118.58236 7492 ft 291 kts 342°
2026-05-06 11:56 34.14366 -118.59016 8044 ft 293 kts 343°
2026-05-06 11:56 34.16298 -118.59801 8581 ft 295 kts 343°
2026-05-06 11:56 34.18266 -118.60602 9137 ft 298 kts 343°
2026-05-06 11:56 34.20234 -118.61403 9697 ft 300 kts 344°
2026-05-06 11:57 34.22218 -118.62212 10218 ft 302 kts 344°
2026-05-06 11:57 34.24246 -118.63037 10493 ft 313 kts 344°
2026-05-06 11:57 34.26353 -118.63893 10712 ft 326 kts 344°
2026-05-06 11:57 34.28544 -118.64786 10933 ft 338 kts 344°
2026-05-06 11:58 34.30806 -118.65710 11154 ft 350 kts 344°
2026-05-06 11:58 34.33153 -118.66671 11372 ft 362 kts 343°
2026-05-06 11:58 34.35569 -118.67661 11669 ft 370 kts 343°
2026-05-06 11:58 34.38013 -118.68665 12210 ft 372 kts 343°
2026-05-06 11:59 34.40465 -118.69673 12794 ft 372 kts 344°
2026-05-06 11:59 34.42922 -118.70684 13376 ft 373 kts 344°
2026-05-06 11:59 34.45383 -118.71696 13931 ft 375 kts 344°
2026-05-06 11:59 34.47859 -118.72713 14412 ft 377 kts 344°
2026-05-06 12:00 34.50348 -118.73736 14892 ft 379 kts 344°
2026-05-06 12:00 34.52851 -118.74765 15341 ft 381 kts 344°
2026-05-06 12:00 34.55376 -118.75804 15795 ft 384 kts 344°
2026-05-06 12:00 34.57910 -118.76847 16281 ft 386 kts 344°
2026-05-06 12:01 34.60464 -118.77899 16708 ft 389 kts 344°
2026-05-06 12:01 34.63035 -118.78958 17164 ft 391 kts 344°
2026-05-06 12:01 34.65615 -118.80024 17598 ft 393 kts 343°
2026-05-06 12:01 34.68214 -118.81098 18020 ft 396 kts 343°
2026-05-06 12:02 34.70825 -118.82177 18444 ft 398 kts 343°
2026-05-06 12:02 34.72561 -118.82896 18694 ft 399 kts 343°
2026-05-06 12:02 34.75195 -118.83986 19105 ft 401 kts 344°
2026-05-06 12:02 34.77838 -118.85082 19486 ft 402 kts 344°
2026-05-06 12:03 34.80502 -118.86158 19873 ft 403 kts 346°
2026-05-06 12:03 34.83199 -118.87118 20258 ft 404 kts 347°
2026-05-06 12:03 34.85909 -118.88053 20650 ft 406 kts 347°
2026-05-06 12:03 34.88634 -118.88988 21013 ft 408 kts 347°
2026-05-06 12:04 34.91372 -118.89929 21400 ft 409 kts 347°
2026-05-06 12:04 34.94115 -118.90874 21728 ft 411 kts 347°
2026-05-06 12:04 34.96872 -118.91823 22095 ft 413 kts 347°
2026-05-06 12:04 34.99639 -118.92778 22464 ft 414 kts 347°
2026-05-06 12:05 35.02411 -118.93734 22816 ft 416 kts 347°
2026-05-06 12:05 35.05204 -118.94699 23169 ft 418 kts 347°
2026-05-06 12:05 35.08005 -118.95669 23506 ft 419 kts 347°
2026-05-06 12:05 35.10820 -118.96643 23810 ft 421 kts 347°
2026-05-06 12:06 35.13648 -118.97623 24070 ft 423 kts 347°
2026-05-06 12:06 35.16490 -118.98609 24356 ft 425 kts 347°
2026-05-06 12:06 35.19341 -118.99599 24634 ft 427 kts 347°
2026-05-06 12:07 35.24997 -119.01563 25170 ft 430 kts 347°
2026-05-06 12:07 35.27889 -119.02568 25437 ft 432 kts 347°
2026-05-06 12:07 35.30787 -119.03577 25701 ft 434 kts 347°
2026-05-06 12:07 35.33698 -119.04590 25962 ft 436 kts 347°
2026-05-06 12:08 35.36622 -119.05608 26216 ft 437 kts 347°
2026-05-06 12:08 35.39551 -119.06630 26462 ft 439 kts 348°
2026-05-06 12:08 35.42492 -119.07656 26714 ft 441 kts 348°
2026-05-06 12:08 35.45459 -119.08640 26979 ft 441 kts 350°
2026-05-06 12:09 35.48454 -119.09453 27237 ft 441 kts 352°
2026-05-06 12:09 35.51482 -119.10084 27481 ft 441 kts 355°
2026-05-06 12:09 35.54524 -119.10546 27719 ft 442 kts 356°
2026-05-06 12:09 35.57589 -119.10957 27966 ft 443 kts 357°
2026-05-06 12:10 35.60653 -119.11358 28283 ft 443 kts 357°
2026-05-06 12:10 35.63709 -119.11756 28665 ft 441 kts 357°
2026-05-06 12:10 35.66752 -119.12155 29081 ft 438 kts 357°
2026-05-06 12:10 35.69773 -119.12551 29470 ft 436 kts 358°
2026-05-06 12:11 35.72783 -119.12947 29809 ft 435 kts 358°
2026-05-06 12:11 35.75791 -119.13342 30128 ft 434 kts 358°
2026-05-06 12:11 35.78795 -119.13737 30411 ft 433 kts 358°
2026-05-06 12:11 35.81790 -119.14130 30672 ft 432 kts 358°
2026-05-06 12:12 35.84774 -119.14522 30939 ft 431 kts 358°
2026-05-06 12:12 35.87709 -119.14909 31215 ft 429 kts 358°
2026-05-06 12:12 35.90718 -119.15307 31493 ft 428 kts 358°
2026-05-06 12:12 35.93633 -119.15692 31740 ft 427 kts 358°
2026-05-06 12:13 35.96627 -119.16089 31974 ft 426 kts 358°
2026-05-06 12:13 35.99573 -119.16479 32196 ft 426 kts 358°
2026-05-06 12:13 36.02472 -119.16863 32412 ft 425 kts 358°
2026-05-06 12:13 36.05416 -119.17253 32582 ft 426 kts 358°
2026-05-06 12:14 36.08367 -119.17644 32704 ft 427 kts 358°
2026-05-06 12:14 36.11326 -119.18036 32834 ft 428 kts 358°
2026-05-06 12:14 36.14293 -119.18431 32989 ft 429 kts 358°
2026-05-06 12:14 36.17260 -119.18826 33146 ft 429 kts 358°
2026-05-06 12:15 36.23205 -119.19619 33153 ft 430 kts 358°
2026-05-06 12:15 36.29158 -119.20412 33153 ft 431 kts 358°
2026-05-06 12:16 36.35123 -119.21209 33158 ft 431 kts 358°
2026-05-06 12:16 36.41085 -119.22007 33157 ft 431 kts 358°
2026-05-06 12:17 36.47052 -119.22807 33147 ft 431 kts 358°
2026-05-06 12:17 36.53025 -119.23609 33145 ft 432 kts 358°
2026-05-06 12:18 36.59004 -119.24412 33123 ft 432 kts 358°
2026-05-06 12:18 36.64986 -119.25217 33121 ft 433 kts 358°
2026-05-06 12:19 36.70982 -119.26025 33133 ft 433 kts 357°
2026-05-06 12:19 36.76979 -119.26835 33114 ft 433 kts 357°
2026-05-06 12:20 36.82976 -119.27647 33113 ft 433 kts 357°
2026-05-06 12:20 36.88975 -119.28463 33110 ft 433 kts 357°
2026-05-06 12:21 36.94968 -119.29278 33109 ft 433 kts 357°
2026-05-06 12:21 37.00961 -119.30093 33106 ft 434 kts 357°
2026-05-06 12:22 37.06957 -119.30910 33103 ft 434 kts 357°
2026-05-06 12:22 37.12953 -119.31728 33093 ft 434 kts 357°
2026-05-06 12:23 37.18984 -119.32552 33199 ft 437 kts 357°
2026-05-06 12:23 37.22007 -119.32966 33382 ft 436 kts 357°
2026-05-06 12:23 37.24974 -119.33372 33595 ft 435 kts 357°
2026-05-06 12:24 37.28021 -119.33791 33788 ft 434 kts 357°
2026-05-06 12:24 37.30985 -119.34197 33968 ft 434 kts 357°
2026-05-06 12:24 37.33986 -119.34609 34130 ft 433 kts 357°
2026-05-06 12:24 37.36983 -119.35021 34292 ft 433 kts 357°
2026-05-06 12:25 37.39975 -119.35433 34437 ft 432 kts 357°
2026-05-06 12:25 37.42962 -119.35844 34580 ft 432 kts 357°
2026-05-06 12:25 37.45950 -119.36255 34707 ft 432 kts 357°
2026-05-06 12:25 37.48940 -119.36667 34822 ft 432 kts 357°
2026-05-06 12:26 37.51922 -119.37078 34930 ft 432 kts 357°
2026-05-06 12:26 37.54912 -119.37490 35025 ft 432 kts 357°
2026-05-06 12:26 37.60902 -119.38317 35109 ft 433 kts 357°
2026-05-06 12:27 37.66886 -119.39146 35107 ft 433 kts 357°
2026-05-06 12:27 37.72869 -119.39973 35112 ft 432 kts 357°
2026-05-06 12:28 37.78845 -119.40804 35115 ft 432 kts 357°
2026-05-06 12:28 37.84819 -119.41634 35120 ft 432 kts 357°
2026-05-06 12:29 37.90789 -119.42464 35130 ft 431 kts 357°
2026-05-06 12:29 37.96744 -119.43296 35133 ft 431 kts 357°
2026-05-06 12:30 38.02704 -119.44131 35135 ft 431 kts 357°
2026-05-06 12:30 38.08665 -119.44967 35131 ft 431 kts 357°
2026-05-06 12:31 38.14621 -119.45799 35141 ft 431 kts 357°
2026-05-06 12:31 38.20593 -119.46638 35148 ft 431 kts 357°
2026-05-06 12:32 38.26510 -119.47470 35148 ft 431 kts 356°
2026-05-06 12:32 38.32477 -119.48310 35150 ft 432 kts 356°
2026-05-06 12:33 38.38454 -119.49155 35152 ft 432 kts 356°
2026-05-06 12:33 38.44430 -119.50001 35138 ft 432 kts 356°
2026-05-06 12:34 38.50403 -119.50845 35137 ft 432 kts 356°
2026-05-06 12:34 38.56374 -119.51691 35133 ft 432 kts 356°
2026-05-06 12:35 38.62347 -119.52540 35124 ft 432 kts 356°
2026-05-06 12:35 38.68326 -119.53392 35110 ft 432 kts 356°
2026-05-06 12:36 38.74297 -119.54244 35114 ft 433 kts 356°
2026-05-06 12:36 38.80296 -119.55103 35124 ft 434 kts 356°
2026-05-06 12:37 38.86292 -119.55962 35136 ft 434 kts 356°
2026-05-06 12:37 38.92290 -119.56821 35147 ft 434 kts 356°
2026-05-06 12:38 38.98286 -119.57682 35155 ft 434 kts 356°
2026-05-06 12:38 39.04284 -119.58544 35156 ft 434 kts 356°
2026-05-06 12:39 39.10292 -119.59406 35157 ft 434 kts 356°
2026-05-06 12:39 39.16294 -119.60274 35175 ft 434 kts 356°
2026-05-06 12:40 39.22291 -119.61142 35178 ft 434 kts 356°
2026-05-06 12:40 39.28235 -119.62001 35163 ft 434 kts 356°
2026-05-06 12:41 39.34254 -119.62873 35143 ft 435 kts 356°
2026-05-06 12:41 39.40266 -119.63747 35126 ft 435 kts 356°
2026-05-06 12:42 39.46278 -119.64348 35129 ft 433 kts
2026-05-06 12:42 39.52232 -119.63888 35139 ft 432 kts
2026-05-06 12:43 39.58111 -119.62327 35125 ft 431 kts 16°
2026-05-06 12:43 39.63720 -119.59729 35108 ft 432 kts 22°
2026-05-06 12:44 39.69248 -119.56662 35107 ft 432 kts 22°
2026-05-06 12:44 39.74769 -119.53572 35102 ft 432 kts 22°
2026-05-06 12:45 39.80120 -119.50572 35065 ft 431 kts 22°
2026-05-06 12:46 39.88360 -119.45949 35037 ft 431 kts 22°
2026-05-06 12:46 39.93869 -119.42850 35036 ft 432 kts 22°
2026-05-06 12:47 39.99382 -119.39745 35039 ft 432 kts 22°
2026-05-06 12:47 40.04889 -119.36637 35041 ft 432 kts 22°
2026-05-06 12:48 40.10298 -119.33579 35043 ft 432 kts 22°
2026-05-06 12:48 40.15807 -119.30457 35039 ft 432 kts 22°
2026-05-06 12:49 40.21293 -119.27345 35041 ft 432 kts 22°
2026-05-06 12:49 40.26804 -119.24212 35056 ft 432 kts 22°
2026-05-06 12:50 40.32299 -119.21082 35046 ft 430 kts 22°
2026-05-06 12:50 40.37786 -119.17952 35044 ft 431 kts 22°
2026-05-06 12:51 40.43286 -119.14810 35046 ft 431 kts 22°
2026-05-06 12:51 40.48775 -119.11668 35049 ft 431 kts 22°
2026-05-06 12:52 40.54268 -119.08516 35048 ft 431 kts 22°
2026-05-06 12:52 40.59765 -119.05358 35050 ft 431 kts 22°
2026-05-06 12:53 40.65258 -119.02199 35051 ft 431 kts 22°
2026-05-06 12:53 40.70761 -118.99028 35051 ft 431 kts 22°
2026-05-06 12:54 40.75236 -118.96445 35050 ft 431 kts 22°
2026-05-06 12:54 40.80727 -118.93267 35057 ft 430 kts 22°
2026-05-06 12:55 40.86198 -118.90096 35057 ft 429 kts 21°
2026-05-06 12:55 40.91676 -118.86917 35058 ft 429 kts 22°
2026-05-06 12:56 40.97143 -118.83738 35057 ft 429 kts 22°
2026-05-06 12:56 41.02615 -118.80550 35061 ft 430 kts 22°
2026-05-06 12:57 41.08087 -118.77356 35063 ft 430 kts 22°
2026-05-06 12:57 41.13557 -118.74157 35070 ft 430 kts 22°
2026-05-06 12:58 41.19029 -118.70951 35074 ft 430 kts 22°
2026-05-06 12:58 41.24494 -118.67743 35071 ft 430 kts 22°
2026-05-06 12:59 41.29923 -118.64548 35089 ft 428 kts 21°
2026-05-06 12:59 41.35366 -118.61342 35084 ft 428 kts 21°
2026-05-06 13:00 41.40811 -118.58129 35084 ft 428 kts 22°
2026-05-06 13:00 41.46247 -118.54915 35087 ft 428 kts 22°
2026-05-06 13:01 41.51686 -118.51692 35090 ft 428 kts 21°
2026-05-06 13:01 41.57132 -118.48460 35088 ft 428 kts 21°
2026-05-06 13:02 41.62567 -118.45230 35087 ft 428 kts 21°
2026-05-06 13:02 41.68008 -118.41989 35087 ft 428 kts 21°
2026-05-06 13:03 41.73444 -118.38745 35094 ft 428 kts 21°
2026-05-06 13:03 41.78888 -118.35489 35089 ft 428 kts 21°
2026-05-06 13:04 41.84322 -118.32235 35090 ft 428 kts 22°
2026-05-06 13:04 41.89763 -118.28970 35088 ft 428 kts 22°
2026-05-06 13:05 41.95202 -118.25699 35067 ft 428 kts 22°
2026-05-06 13:05 42.00643 -118.22423 35074 ft 430 kts 22°
2026-05-06 13:06 42.05947 -118.19221 35079 ft 430 kts 22°
2026-05-06 13:06 42.11165 -118.16066 35081 ft 430 kts 22°
2026-05-06 13:07 42.16663 -118.12737 35080 ft 430 kts 22°
2026-05-06 13:07 42.22087 -118.09446 35082 ft 431 kts 22°
2026-05-06 13:08 42.27556 -118.06122 35086 ft 431 kts 22°
2026-05-06 13:08 42.33027 -118.02790 35096 ft 431 kts 22°
2026-05-06 13:09 42.38491 -117.99455 35107 ft 431 kts 22°
2026-05-06 13:09 42.43958 -117.96110 35119 ft 432 kts 22°
2026-05-06 13:10 42.49434 -117.92753 35125 ft 432 kts 22°
2026-05-06 13:10 42.54908 -117.89392 35126 ft 432 kts 22°
2026-05-06 13:11 42.60467 -117.86332 35128 ft 431 kts 17°
2026-05-06 13:11 42.66172 -117.83854 35120 ft 430 kts 15°
2026-05-06 13:12 42.71890 -117.81458 35118 ft 429 kts 15°
2026-05-06 13:12 42.77599 -117.79063 35110 ft 429 kts 15°
2026-05-06 13:13 42.83304 -117.76663 35100 ft 429 kts 15°
2026-05-06 13:13 42.89018 -117.74253 35087 ft 430 kts 15°
2026-05-06 13:14 42.94745 -117.71832 35108 ft 431 kts 15°
2026-05-06 13:14 43.00454 -117.69414 35102 ft 429 kts 15°
2026-05-06 13:15 43.06153 -117.66995 35092 ft 429 kts 15°
2026-05-06 13:15 43.11861 -117.64569 35084 ft 430 kts 15°
2026-05-06 13:16 43.17576 -117.62134 35091 ft 431 kts 15°
2026-05-06 13:16 43.23301 -117.59690 35108 ft 430 kts 15°
2026-05-06 13:17 43.29009 -117.57248 35087 ft 429 kts 15°
2026-05-06 13:17 43.34706 -117.54807 35095 ft 429 kts 15°
2026-05-06 13:18 43.40409 -117.52358 35083 ft 429 kts 15°
2026-05-06 13:18 43.46109 -117.49906 35085 ft 429 kts 15°
2026-05-06 13:19 43.51807 -117.47449 35093 ft 427 kts 15°
2026-05-06 13:19 43.57477 -117.45000 35076 ft 428 kts 15°
2026-05-06 13:20 43.63170 -117.42536 35079 ft 429 kts 15°
2026-05-06 13:20 43.68827 -117.40083 35078 ft 429 kts 15°
2026-05-06 13:21 43.74519 -117.37610 35074 ft 429 kts 15°
2026-05-06 13:21 43.80203 -117.35134 35081 ft 428 kts 15°
2026-05-06 13:22 43.85895 -117.32652 35084 ft 429 kts 15°
2026-05-06 13:22 43.91593 -117.30161 35088 ft 429 kts 15°
2026-05-06 13:23 43.97288 -117.27667 35089 ft 429 kts 15°
2026-05-06 13:23 44.03026 -117.25148 35083 ft 430 kts 15°
2026-05-06 13:24 44.08685 -117.22657 35101 ft 429 kts 15°
2026-05-06 13:24 44.14364 -117.20155 35099 ft 428 kts 15°
2026-05-06 13:25 44.20051 -117.17644 35120 ft 428 kts 15°
2026-05-06 13:25 44.25730 -117.15131 35111 ft 428 kts 15°
2026-05-06 13:26 44.31419 -117.12608 35085 ft 429 kts 15°
2026-05-06 13:26 44.37096 -117.10084 35091 ft 427 kts 15°
2026-05-06 13:27 44.42754 -117.07566 35088 ft 427 kts 15°
2026-05-06 13:27 44.48417 -117.05039 35081 ft 427 kts 15°
2026-05-06 13:28 44.54076 -117.02508 35074 ft 428 kts 15°
2026-05-06 13:28 44.59756 -116.99964 35077 ft 428 kts 15°
2026-05-06 13:29 44.65424 -116.97418 35080 ft 428 kts 15°
2026-05-06 13:29 44.71090 -116.94871 35078 ft 428 kts 15°
2026-05-06 13:30 44.76764 -116.92311 35068 ft 430 kts 15°
2026-05-06 13:30 44.82458 -116.89741 35068 ft 430 kts 15°
2026-05-06 13:31 44.88153 -116.87164 35078 ft 430 kts 15°
2026-05-06 13:31 44.93852 -116.84579 35081 ft 428 kts 15°
2026-05-06 13:32 44.99527 -116.81999 35066 ft 430 kts 15°
2026-05-06 13:32 45.05215 -116.79410 35072 ft 430 kts 15°
2026-05-06 13:33 45.10917 -116.76808 35068 ft 431 kts 15°
2026-05-06 13:33 45.16625 -116.74198 35062 ft 431 kts 15°
2026-05-06 13:34 45.22325 -116.71584 35067 ft 430 kts 14°
2026-05-06 13:34 45.28026 -116.68966 35053 ft 430 kts 14°
2026-05-06 13:35 45.33715 -116.66347 35056 ft 430 kts 14°
2026-05-06 13:35 45.39408 -116.63722 35049 ft 430 kts 14°
2026-05-06 13:36 45.45104 -116.61090 35044 ft 430 kts 14°
2026-05-06 13:36 45.50809 -116.58448 35060 ft 431 kts 14°
2026-05-06 13:37 45.56489 -116.55811 35043 ft 429 kts 14°
2026-05-06 13:37 45.62161 -116.53172 35041 ft 428 kts 14°
2026-05-06 13:38 45.67836 -116.50529 35040 ft 429 kts 14°
2026-05-06 13:38 45.73479 -116.47894 35039 ft 429 kts 15°
2026-05-06 13:39 45.79155 -116.45236 35060 ft 429 kts 14°
2026-05-06 13:39 45.84808 -116.42583 35041 ft 426 kts 14°
2026-05-06 13:40 45.90448 -116.39932 35030 ft 425 kts 15°
2026-05-06 13:40 45.96079 -116.37277 35020 ft 427 kts 14°
2026-05-06 13:41 46.00816 -116.35042 35034 ft 429 kts 14°
2026-05-06 13:41 46.06444 -116.32381 35032 ft 429 kts 14°
2026-05-06 13:42 46.12108 -116.29696 35056 ft 427 kts 14°
2026-05-06 13:42 46.17737 -116.27022 35040 ft 426 kts 14°
2026-05-06 13:43 46.23377 -116.24335 35047 ft 427 kts 14°
2026-05-06 13:43 46.29031 -116.21639 35041 ft 428 kts 14°
2026-05-06 13:44 46.34691 -116.18933 35038 ft 428 kts 14°
2026-05-06 13:44 46.40348 -116.16223 35055 ft 428 kts 14°
2026-05-06 13:45 46.45982 -116.13517 35035 ft 426 kts 14°
2026-05-06 13:45 46.54448 -116.09438 35034 ft 428 kts 14°
2026-05-06 13:46 46.60064 -116.06727 35046 ft 428 kts 14°
2026-05-06 13:46 46.65718 -116.03992 35043 ft 428 kts 14°
2026-05-06 13:47 46.71319 -116.01275 35053 ft 428 kts 14°
2026-05-06 13:47 46.76967 -115.98528 35048 ft 428 kts 14°
2026-05-06 13:48 46.82620 -115.95775 35046 ft 428 kts 14°
2026-05-06 13:48 46.88277 -115.93014 35043 ft 428 kts 14°
2026-05-06 13:49 46.93926 -115.90250 35048 ft 428 kts 14°
2026-05-06 13:49 46.99585 -115.87472 35046 ft 430 kts 14°
2026-05-06 13:50 47.05249 -115.84688 35062 ft 429 kts 14°
2026-05-06 13:50 47.10906 -115.81901 35054 ft 429 kts 14°
2026-05-06 13:51 47.16563 -115.79109 35052 ft 429 kts 14°
2026-05-06 13:51 47.22221 -115.76309 35051 ft 429 kts 14°
2026-05-06 13:52 47.27887 -115.73497 35058 ft 430 kts 14°
2026-05-06 13:52 47.33568 -115.70673 35106 ft 430 kts 14°
2026-05-06 13:53 47.39187 -115.67620 35090 ft 432 kts 18°
2026-05-06 13:53 47.44601 -115.63690 35086 ft 436 kts 24°
2026-05-06 13:54 47.49750 -115.58856 35076 ft 441 kts 30°
2026-05-06 13:54 47.54580 -115.53149 35090 ft 447 kts 34°
2026-05-06 13:55 47.59276 -115.47077 35089 ft 448 kts 35°
2026-05-06 13:55 47.63938 -115.41011 35088 ft 448 kts 35°
2026-05-06 13:56 47.68621 -115.34908 35087 ft 448 kts 35°
2026-05-06 13:56 47.73307 -115.28791 35090 ft 448 kts 35°
2026-05-06 13:57 47.77992 -115.22661 35084 ft 448 kts 35°
2026-05-06 13:57 47.82655 -115.16542 35093 ft 446 kts 35°
2026-05-06 13:58 47.87324 -115.10403 35098 ft 448 kts 35°
2026-05-06 13:58 47.91989 -115.04256 35094 ft 449 kts 35°
2026-05-06 13:59 47.96661 -114.98082 35091 ft 449 kts 35°
2026-05-06 13:59 48.01321 -114.91907 35103 ft 447 kts 35°
2026-05-06 14:00 48.05958 -114.85747 35097 ft 445 kts 35°
2026-05-06 14:00 48.10592 -114.79579 35093 ft 445 kts 35°
2026-05-06 14:01 48.15223 -114.73398 35100 ft 445 kts 35°
2026-05-06 14:01 48.19865 -114.67189 35129 ft 449 kts 35°
2026-05-06 14:02 48.24500 -114.60966 35106 ft 446 kts 35°
2026-05-06 14:02 48.29129 -114.54740 35110 ft 446 kts 35°
2026-05-06 14:03 48.33756 -114.48502 35104 ft 446 kts 35°
2026-05-06 14:03 48.38373 -114.42261 35117 ft 446 kts 35°
2026-05-06 14:04 48.42989 -114.36000 35130 ft 445 kts 35°
2026-05-06 14:04 48.47579 -114.29764 35125 ft 444 kts 35°
2026-05-06 14:05 48.52170 -114.23513 35131 ft 444 kts 35°
2026-05-06 14:05 48.56760 -114.17246 35124 ft 444 kts 35°
2026-05-06 14:06 48.61335 -114.10983 35127 ft 444 kts 35°
2026-05-06 14:06 48.65908 -114.04699 35096 ft 442 kts 35°
2026-05-06 14:07 48.70457 -113.98442 35073 ft 443 kts 35°
2026-05-06 14:07 48.75013 -113.92157 35071 ft 442 kts 35°
2026-05-06 14:08 48.79552 -113.85877 35043 ft 442 kts 35°
2026-05-06 14:08 48.84097 -113.79574 35047 ft 442 kts 35°
2026-05-06 14:09 48.88605 -113.73304 34998 ft 442 kts 35°
2026-05-06 14:09 48.93140 -113.66983 34993 ft 442 kts 35°
2026-05-06 14:10 48.97671 -113.60648 34980 ft 442 kts 35°
2026-05-06 14:10 49.02193 -113.54312 34982 ft 442 kts 35°
2026-05-06 14:11 49.06712 -113.47961 34995 ft 440 kts 35°
2026-05-06 14:11 49.11211 -113.41624 34987 ft 440 kts 35°
2026-05-06 14:12 49.15703 -113.35282 34985 ft 440 kts 35°
2026-05-06 14:12 49.20201 -113.28914 35001 ft 441 kts 35°
2026-05-06 14:13 49.24708 -113.22515 35032 ft 442 kts 35°
2026-05-06 14:13 49.29203 -113.16110 35011 ft 440 kts 35°
2026-05-06 14:14 49.33684 -113.09716 35008 ft 440 kts 35°
2026-05-06 14:14 49.38166 -113.03302 35014 ft 440 kts 35°
2026-05-06 14:15 49.42643 -112.96879 35009 ft 440 kts 35°
2026-05-06 14:15 49.47112 -112.90447 35038 ft 439 kts 35°
2026-05-06 14:16 49.51537 -112.84063 35005 ft 438 kts 35°
2026-05-06 14:16 49.55992 -112.77622 34997 ft 440 kts 35°
2026-05-06 14:17 49.60458 -112.71143 34996 ft 440 kts 35°
2026-05-06 14:17 49.65087 -112.65047 34998 ft 435 kts 30°
2026-05-06 14:18 49.69954 -112.59530 35006 ft 433 kts 28°
2026-05-06 14:18 49.74843 -112.54085 35019 ft 433 kts 28°
2026-05-06 14:19 49.79728 -112.48626 35050 ft 433 kts 28°
2026-05-06 14:19 49.84606 -112.43158 35041 ft 433 kts 28°
2026-05-06 14:20 49.89505 -112.37651 35051 ft 435 kts 28°
2026-05-06 14:20 49.94396 -112.32136 35076 ft 434 kts 28°
2026-05-06 14:21 49.99269 -112.26626 35063 ft 433 kts 28°
2026-05-06 14:21 50.04131 -112.21116 35062 ft 433 kts 28°
2026-05-06 14:22 50.09002 -112.15583 35066 ft 433 kts 28°
2026-05-06 14:22 50.13868 -112.10040 35067 ft 433 kts 28°
2026-05-06 14:23 50.18740 -112.04476 35090 ft 434 kts 28°
2026-05-06 14:23 50.23602 -111.98907 35083 ft 433 kts 28°
2026-05-06 14:24 50.28465 -111.93325 35070 ft 434 kts 28°
2026-05-06 14:24 50.33290 -111.87772 35076 ft 434 kts 28°
2026-05-06 14:25 50.38182 -111.82127 35078 ft 434 kts 28°
2026-05-06 14:25 50.43038 -111.76507 35113 ft 434 kts 28°
2026-05-06 14:26 50.47881 -111.70887 35075 ft 432 kts 28°
2026-05-06 14:26 50.52681 -111.65307 35081 ft 433 kts 28°
2026-05-06 14:27 50.57513 -111.59673 35078 ft 434 kts 28°
2026-05-06 14:27 50.62346 -111.54022 35079 ft 434 kts 28°
2026-05-06 14:28 50.66398 -111.49274 35079 ft 434 kts 28°
2026-05-06 14:28 50.72018 -111.42666 35088 ft 432 kts 28°
2026-05-06 14:29 50.76036 -111.37933 35080 ft 431 kts 28°
2026-05-06 14:29 50.80846 -111.32254 35081 ft 433 kts 29°
2026-05-06 14:30 50.85674 -111.26539 35083 ft 434 kts 29°
2026-05-06 14:30 50.90502 -111.20806 35084 ft 434 kts 29°
2026-05-06 14:31 50.95322 -111.15066 35110 ft 432 kts 29°
2026-05-06 14:31 51.00117 -111.09343 35088 ft 431 kts 29°
2026-05-06 14:32 51.04876 -111.03649 35081 ft 431 kts 29°
2026-05-06 14:32 51.09664 -110.97905 35081 ft 431 kts 29°
2026-05-06 14:33 51.14459 -110.92136 35083 ft 433 kts 29°
2026-05-06 14:33 51.19263 -110.86342 35123 ft 433 kts 29°
2026-05-06 14:34 51.24049 -110.80550 35086 ft 431 kts 29°
2026-05-06 14:34 51.28821 -110.74763 35083 ft 431 kts 29°
2026-05-06 14:35 51.33596 -110.68957 35082 ft 431 kts 29°
2026-05-06 14:35 51.38364 -110.63143 35078 ft 431 kts 29°
2026-05-06 14:36 51.43131 -110.57315 35072 ft 431 kts 29°
2026-05-06 14:36 51.47903 -110.51465 35102 ft 431 kts 29°
2026-05-06 14:37 51.52670 -110.45604 35090 ft 431 kts 29°
2026-05-06 14:37 51.57439 -110.39727 35089 ft 431 kts 29°
2026-05-06 14:38 51.62194 -110.33851 35087 ft 432 kts 29°
2026-05-06 14:38 51.66845 -110.27679 35090 ft 436 kts 34°
2026-05-06 14:39 51.71320 -110.21036 35113 ft 436 kts 34°
2026-05-06 14:39 51.75781 -110.14429 35094 ft 435 kts 34°
2026-05-06 14:40 51.80251 -110.07844 35092 ft 435 kts 34°
2026-05-06 14:40 51.84694 -110.01294 35095 ft 435 kts 34°
2026-05-06 14:41 51.89154 -109.94696 35096 ft 435 kts 34°
2026-05-06 14:41 51.93608 -109.88057 35150 ft 435 kts 34°
2026-05-06 14:42 51.98042 -109.81420 35115 ft 433 kts 34°
2026-05-06 14:42 52.02463 -109.74789 35102 ft 432 kts 34°
2026-05-06 14:43 52.06878 -109.68148 35097 ft 433 kts 34°
2026-05-06 14:43 52.11298 -109.61482 35117 ft 434 kts 34°
2026-05-06 14:44 52.15732 -109.54776 35097 ft 435 kts 34°
2026-05-06 14:45 52.22358 -109.44714 35117 ft 435 kts 34°
2026-05-06 14:45 52.26785 -109.37968 35102 ft 435 kts 34°
2026-05-06 14:46 52.31213 -109.31204 35127 ft 435 kts 34°
2026-05-06 14:46 52.35623 -109.24447 35108 ft 435 kts 34°
2026-05-06 14:47 52.40044 -109.17652 35148 ft 435 kts 34°
2026-05-06 14:47 52.44433 -109.10886 35121 ft 433 kts 34°
2026-05-06 14:48 52.48835 -109.04088 35130 ft 435 kts 34°
2026-05-06 14:48 52.53229 -108.97276 35130 ft 435 kts 34°
2026-05-06 14:49 52.57597 -108.90487 35137 ft 435 kts 35°
2026-05-06 14:49 52.61996 -108.83627 35147 ft 435 kts 35°
2026-05-06 14:50 52.66368 -108.76786 35149 ft 432 kts 34°
2026-05-06 14:50 52.70721 -108.69962 35152 ft 432 kts 34°
2026-05-06 14:51 52.75073 -108.63119 35127 ft 432 kts 35°
2026-05-06 14:51 52.79438 -108.56236 35130 ft 433 kts 35°
2026-05-06 14:52 52.83803 -108.49334 35114 ft 434 kts 35°
2026-05-06 14:52 52.88157 -108.42421 35133 ft 432 kts 35°
2026-05-06 14:53 52.92483 -108.35536 35133 ft 431 kts 35°
2026-05-06 14:53 52.96809 -108.28634 35134 ft 431 kts 35°
2026-05-06 14:54 53.01133 -108.21716 35139 ft 431 kts 35°
2026-05-06 14:54 53.05447 -108.14791 35145 ft 431 kts 35°
2026-05-06 14:55 53.09727 -108.07900 35196 ft 431 kts 35°
2026-05-06 14:55 53.14019 -108.00968 35159 ft 430 kts 35°
2026-05-06 14:56 53.18315 -107.94014 35151 ft 430 kts 35°
2026-05-06 14:56 53.22603 -107.87050 35144 ft 430 kts 35°
2026-05-06 14:57 53.26895 -107.80059 35144 ft 430 kts 35°
2026-05-06 14:57 53.31174 -107.73068 35143 ft 431 kts 35°
2026-05-06 14:58 53.35445 -107.66061 35156 ft 428 kts 35°